Starlink 30140

operational
NORAD ID: 57458 Int'l Des: 2023-107 Owner: SPXS Country: US Constellation: starlink
LEOCIRCULAR

Über Starlink 30140

Beschreibung wird geladen...

Live-Position

3D-Globus wird geladen...

Nächste Überflüge

Höhenverlauf

Altitude vs Time

uPlot chart will show altitude changes over time

Zweizeiliger Elementsatz

1 57458U 23107B 25259.53647626 .00000704 00000-0 67144-4 0 9991
2 57458 43.0027 205.4911 0001340 279.7372 80.3319 15.02545430118917
Epoch: 16. Sept. 2025 • Age: 12 hours

Aktueller Status

Höhe 571.5 km
Geschwindigkeit 7.58 km/s
Subsatellitenpunkt -43.14°S, 95.81°E
Startdatum 28. Juli 2023
Alter 2.1 years
Typ internet

Technische Details

Klassifizierung Payload
Masse 730.00 kg
Trockenmasse 700.00 kg
Gesamtmasse 730.00 kg
Länge 0.30 m
Durchmesser 4.10 m
Spannweite 29.00 m
Form Box + pan
Hersteller SPXS
Bus-Typ Starlink V2M
Phasenstatus In Orbit
Besitzer/Staat SPXS/US

Große Konstellationen

Loading constellations...